N0XUT Weather Reports


time (UTC)temp
C
wind
direction
speed
KPH
gust
KPH
rain 1hr
cm
rain 24hr
cm
rain mn
cm
humidity
%
barometer
mb
20260504045956 12 263 0.0 1.6 0.00 0.00 0.00 51 1004.7
20260504044455 12 263 0.0 1.6 0.00 0.00 0.00 51 1004.9
20260504041456 12 263 0.0 1.6 0.00 0.00 0.00 52 1005.1
20260504035955 13 301 0.0 1.6 0.00 0.00 0.00 48 1005.3
20260504034455 13 301 0.0 0.0 0.00 0.00 0.00 48 1005.4
20260504031456 15 302 0.0 1.6 0.00 0.00 0.00 44 1005.7
20260504025955 15 302 0.0 3.2 0.00 0.00 0.00 43 1005.6
20260504024456 16 287 1.6 3.2 0.00 0.00 0.00 42 1005.5
20260504022956 16 298 3.2 4.8 0.00 0.00 0.00 40 1005.4
20260504015956 17 305 0.0 3.2 0.00 0.00 0.00 37 1005.2
20260504014456 17 311 1.6 4.8 0.00 0.00 0.00 35 1005.0
20260504012956 18 306 1.6 4.8 0.00 0.00 0.00 34 1004.9
20260504011455 19 309 1.6 11.3 0.00 0.00 0.00 32 1004.7
20260504005956 20 300 4.8 12.9 0.00 0.00 0.00 30 1004.7
20260504004455 21 290 6.4 14.5 0.00 0.00 0.00 29 1004.6
20260504002957 21 295 8.0 19.3 0.00 0.00 0.00 27 1004.6
20260503234456 22 319 9.7 27.4 0.00 0.00 0.00 23 1004.4
20260503232956 22 308 14.5 25.7 0.00 0.00 0.00 23 1004.5
20260503231456 23 298 14.5 27.4 0.00 0.00 0.00 23 1004.6
20260503225956 23 294 14.5 32.2 0.00 0.00 0.00 24 1004.6
20260503224456 23 275 11.3 25.7 0.00 0.00 0.00 24 1004.4
20260503215956 23 271 16.1 29.0 0.00 0.00 0.00 27 1004.2
20260503214456 23 269 14.5 32.2 0.00 0.00 0.00 27 1004.3
20260503212956 23 280 9.7 32.2 0.00 0.00 0.00 29 1004.3
20260503211456 23 310 14.5 32.2 0.00 0.00 0.00 28 1004.3
20260503205956 23 295 16.1 32.2 0.00 0.00 0.00 27 1004.4
20260503204456 23 312 12.9 32.2 0.00 0.00 0.00 27 1004.4
20260503202956 23 285 14.5 32.2 0.00 0.00 0.00 28 1004.5
20260503201456 23 296 19.3 32.2 0.00 0.00 0.00 29 1004.7
20260503195956 23 298 12.9 32.2 0.00 0.00 0.00 31 1004.7
20260503192956 22 285 19.3 35.4 0.00 0.00 0.00 29 1004.9
20260503191457 22 308 17.7 32.2 0.00 0.00 0.00 31 1004.9
20260503185956 22 278 12.9 29.0 0.00 0.00 0.00 34 1005.0
20260503182956 22 242 16.1 32.2 0.00 0.00 0.00 37 1005.2
20260503175956 21 280 11.3 29.0 0.00 0.00 0.00 40 1005.7
20260503174457 20 260 11.3 32.2 0.00 0.00 0.00 42 1005.9
20260503172956 20 254 16.1 27.4 0.00 0.00 0.00 40 1006.1
20260503171456 19 230 16.1 32.2 0.00 0.00 0.00 40 1006.2
20260503081456 11 222 6.4 16.1 0.00 0.00 0.00 50 1012.4
20260503071456 11 234 1.6 19.3 0.00 0.00 0.00 50 1012.8